Miscellaneous Local Product
Issued by NWS Hastings, NE

Home | Current Version | Previous Version | Text Only | Print | Product List | Glossary On
Versions: 1 2 3 4 5 6 7 8 9 10 11 12 13 14 15 16 17 18 19 20 21 22 23 24 25 26 27 28 29 30 31 32 33 34 35 36 37 38 39 40 41 42 43 44 45 46 47 48 49 50
000
AXUS43 KGID 072102
MISGRI

GID CWA HOURLY WEATHER ROUNDUP
NATIONAL WEATHER SERVICE HASTINGS NE
300 PM CST SUN FEB 07 2016

NOTE: "FAIR" INDICATES FEW OR NO CLOUDS BELOW 12,000 FEET WITH NO
SIGNIFICANT WEATHER AND/OR OBSTRUCTIONS TO VISIBILITY.

...SOUTH CENTRAL NEBRASKA...

CITY           SKY/WX    TMP DP  RH WIND       PRES   REMARKS
GRAND ISLAND   CLOUDY    39  20  46 NW37G47   30.06R WCI  26
HASTINGS       CLOUDY    41  19  41 NW40G53   30.07R
ORD            CLOUDY    38  21  50 NW32G46   30.02S WCI  25
YORK           MOSUNNY   39  23  52 NW30G44   30.01S WCI  27
AURORA         CLOUDY    40  20  44 NW31G46   30.04S WCI  29
LEXINGTON      SUNNY     40  21  46 NW24G31   30.12F WCI  30
HOLDREGE       SUNNY     40  20  43 NW23G33   30.10F WCI  30
HEBRON         MOSUNNY   42  26  53 W15G22    30.06S

...NEBRASKA PANHANDLE...

CITY           SKY/WX    TMP DP  RH WIND       PRES   REMARKS
CHADRON        SUNNY     39  14  36 NW30G43   30.24S WCI  27
ALLIANCE       SUNNY     33  15  47 NW31G38   30.21F WCI  19
SCOTTSBLUFF    CLOUDY    34  14  43 NW32G44   30.28F WCI  20
SIDNEY         CLOUDY    32  16  51 NW31G40   30.26S WCI  17

...WESTERN AND NORTH CENTRAL NEBRASKA...

CITY           SKY/WX    TMP DP  RH WIND       PRES   REMARKS
VALENTINE      CLOUDY    37  16  42 NW28G49   30.05S WCI  25
AINSWORTH      PTSUNNY   38  14  37 NW36G49   30.03S WCI  25
ONEILL         LGT SNOW  33  29  87 NW25G31   29.99F WCI  20
BROKEN BOW     CLOUDY    40  15  36 NW36G58   30.06S WCI  27
IMPERIAL       MOSUNNY   37  19  48 NW25G37   30.23F WCI  25
NORTH PLATTE   SUNNY     39  18  42 NW31G40   30.14F WCI  27
MCCOOK         SUNNY     40  23  50 NW28G38   30.20S WCI  29

...EASTERN NEBRASKA...

CITY           SKY/WX    TMP DP  RH WIND       PRES   REMARKS
NORFOLK        LGT SNOW  36  28  73 NW24G37   29.95R WCI  24
SO SIOUX CITY  LGT SNOW  36  30  79 NW23G31   29.88S WCI  24
TEKAMAH        LGT RAIN  37  28  70 NW30G41   29.95R WCI  24
COLUMBUS       PTSUNNY   36  21  55 NW28      30.01R WCI  23
ALBION         CLOUDY    36  27  71 NW23G32   30.01R WCI  24
OMAHA EPPLEY   PTSUNNY   43  23  45 W20G35    29.93F
OFFUTT AFB     CLOUDY    42  22  45 NW25G35   29.93F
MILLARD        CLOUDY    43  23  45 W20G26    29.95S
LINCOLN        CLOUDY    42  22  44 NW22G30   30.01R
NEBRASKA CITY  MOSUNNY   44  25  46 NW22G30   29.97F
BEATRICE       SUNNY     44  28  53 W21G29    30.02S
FALLS CITY     SUNNY     49  21  33 NW33G49   29.99F

...NORTHERN KANSAS...

CITY           SKY/WX    TMP DP  RH WIND       PRES   REMARKS
GOODLAND       PTSUNNY   37  19  48 NW24      30.27S WCI  26
HILL CITY      PTSUNNY   40  25  55 NW18G25   30.21F WCI  31
NORTON         CLEAR     39  19  45 W28G37    30.17S WCI  28
PHILLIPSBURG   SUNNY     43  25  49 W25G31    30.17S
BELOIT         SUNNY     46  27  46 W17G28    30.13S
HAYS           PTSUNNY   45  23  42 NW25G33   30.20F
RUSSELL        PTSUNNY   44  28  53 NW20      30.18F
CONCORDIA      SUNNY     47  23  38 W31G39    30.09F
SALINA         MOSUNNY   53  13  20 NW26G36   30.13F
TOPEKA         MOSUNNY   51  20  29 NW16G33   30.04F



USA.gov is the U.S. government's official web portal to all federal, state and local government web resources and services.